This is the latest recevied weather packets stored in our database for station/object NQ9F. If no packets are shown the sender has not sent any weather packets the latest 10 day(s).
| Time | Temp. | Humidity | Pressure | Rain* | Wind** | Luminosity | Snow |
|---|---|---|---|---|---|---|---|
| 1777944780 | 24.44° C | 70% | 1004.9 hPa | 0 mm | - | 0 W/m² | - |
| 1777944479 | 24.44° C | 70% | 1005.3 hPa | 0 mm | - | 0 W/m² | - |
| 1777944176 | 24.44° C | 70% | 1005.2 hPa | 0 mm | - | 1 W/m² | - |
| 1777943871 | 24.44° C | 70% | 1005.2 hPa | 0 mm | - | 2 W/m² | - |
| 1777943569 | 24.44° C | 70% | 1005.1 hPa | 0 mm | - | 3 W/m² | - |
| 1777943264 | 24.44° C | 70% | 1005.2 hPa | 0 mm | - | 5 W/m² | - |
| 1777942961 | 25° C | 69% | 1005.3 hPa | 0 mm | - | 9 W/m² | - |
| 1777942657 | 25° C | 69% | 1005.2 hPa | 0 mm | - | 12 W/m² | - |
| 1777942354 | 25° C | 69% | 1005.1 hPa | 0 mm | - | 19 W/m² | - |
| 1777942051 | 25° C | 68% | 1005.3 hPa | 0 mm | - | 27 W/m² | - |
| 1777941747 | 25° C | 67% | 1005.5 hPa | 0 mm | - | 35 W/m² | - |
| 1777941445 | 25° C | 67% | 1005.4 hPa | 0 mm | - | 37 W/m² | - |
| 1777941143 | 25.56° C | 67% | 1005.4 hPa | 0 mm | - | 42 W/m² | - |
| 1777940838 | 25.56° C | 67% | 1005.3 hPa | 0 mm | - | 45 W/m² | - |
| 1777940536 | 25.56° C | 65% | 1005.3 hPa | 0 mm | - | 51 W/m² | - |
| 1777940234 | 25.56° C | 65% | 1005.4 hPa | 0 mm | - | 56 W/m² | - |
| 1777939931 | 25.56° C | 66% | 1005.3 hPa | 0 mm | - | 57 W/m² | - |
| 1777939628 | 25.56° C | 66% | 1005.5 hPa | 0 mm | - | 70 W/m² | - |
| 1777939326 | 26.11° C | 66% | 1005.2 hPa | 0 mm | - | 88 W/m² | - |
| 1777939022 | 26.11° C | 65% | 1005.4 hPa | 0 mm | - | 121 W/m² | - |
| 1777938718 | 26.11° C | 66% | 1005.4 hPa | 0 mm | - | 134 W/m² | - |
| 1777938416 | 26.11° C | 65% | 1005.3 hPa | 0 mm | - | 137 W/m² | - |
| 1777938113 | 26.11° C | 65% | 1005.4 hPa | 0 mm | - | 154 W/m² | - |
| 1777937809 | 26.11° C | 64% | 1005.6 hPa | 0 mm | - | 195 W/m² | - |
| 1777937504 | 26.11° C | 64% | 1005.6 hPa | 0 mm | - | 209 W/m² | - |
* Rain latest hour (hover to see other rain measurements)
** Current wind speed in m/s (hover to see current wind gust speed)